Time,TemperatureF,DewpointF,PressureIn,WindDirection,WindDirectionDegrees,WindSpeedMPH,WindSpeedGustMPH,Humidity,HourlyPrecipIn,Conditions,Clouds,dailyrainin,SolarRadiationWatts/m^2,SoftwareType,DateUTC
2013-03-05 00:02:00,55.0,-99.9,-100.00,North,355,2.0,8.0,-999,0.00,,,0.00,0.000000,,2013-03-05 10:02:00,
2013-03-05 00:12:00,55.0,-99.9,-100.00,North,355,2.0,8.0,-999,0.00,,,0.00,0.000000,,2013-03-05 10:12:00,
2013-03-05 00:22:00,55.0,-99.9,-100.00,North,355,2.0,8.0,-999,0.00,,,0.00,0.000000,,2013-03-05 10:22:00,
2013-03-05 00:42:00,53.0,-99.9,-100.00,North,350,3.0,8.0,-999,0.00,,,-99.99,0.000000,,2013-03-05 10:42:00,
2013-03-05 00:52:00,53.0,-99.9,-100.00,North,350,3.0,8.0,-999,0.00,,,-99.99,0.000000,,2013-03-05 10:52:00,
2013-03-05 01:02:00,53.0,-99.9,-100.00,North,350,3.0,8.0,-999,0.00,,,-99.99,0.000000,,2013-03-05 11:02:00,
2013-03-05 01:12:00,53.0,-99.9,-100.00,North,350,3.0,8.0,-999,0.00,,,-99.99,0.000000,,2013-03-05 11:12:00,
2013-03-05 01:22:00,53.0,-99.9,-100.00,North,350,3.0,8.0,-999,0.00,,,-99.99,0.000000,,2013-03-05 11:22:00,
2013-03-05 01:42:00,53.0,49.0,-100.00,North,351,3.0,10.0,87,0.00,,,0.00,0.000000,,2013-03-05 11:42:00,
2013-03-05 01:52:00,53.0,49.0,-100.00,North,351,3.0,10.0,87,0.00,,,0.00,0.000000,,2013-03-05 11:52:00,
2013-03-05 02:02:00,53.0,49.0,-100.00,North,351,3.0,10.0,87,0.00,,,0.00,0.000000,,2013-03-05 12:02:00,
2013-03-05 02:11:00,53.0,49.0,-100.00,North,351,3.0,10.0,87,0.00,,,0.00,0.000000,,2013-03-05 12:11:00,
2013-03-05 02:22:00,53.0,49.0,-100.00,North,351,3.0,10.0,87,0.00,,,0.00,0.000000,,2013-03-05 12:22:00,
2013-03-05 02:42:00,52.0,49.0,-100.00,North,352,2.0,8.0,91,0.00,,,0.00,0.000000,,2013-03-05 12:42:00,
2013-03-05 02:52:00,52.0,49.0,-100.00,North,352,2.0,8.0,91,0.00,,,0.00,0.000000,,2013-03-05 12:52:00,
2013-03-05 03:02:00,52.0,49.0,-100.00,North,352,2.0,8.0,91,0.00,,,0.00,0.000000,,2013-03-05 13:02:00,
2013-03-05 03:11:00,52.0,49.0,-100.00,North,352,2.0,8.0,91,0.00,,,0.00,0.000000,,2013-03-05 13:11:00,
2013-03-05 03:21:00,52.0,49.0,-100.00,North,352,2.0,8.0,91,0.00,,,0.00,0.000000,,2013-03-05 13:21:00,
2013-03-05 03:42:00,51.0,47.0,-100.00,North,355,3.0,7.0,86,0.00,,,0.00,0.000000,,2013-03-05 13:42:00,
2013-03-05 03:52:00,51.0,47.0,-100.00,North,355,3.0,7.0,86,0.00,,,0.00,0.000000,,2013-03-05 13:52:00,
2013-03-05 04:02:00,51.0,47.0,-100.00,North,355,3.0,7.0,86,0.00,,,0.00,0.000000,,2013-03-05 14:02:00,
2013-03-05 04:11:00,51.0,47.0,-100.00,North,355,3.0,7.0,86,0.00,,,0.00,0.000000,,2013-03-05 14:11:00,
2013-03-05 04:21:00,51.0,47.0,-100.00,North,355,3.0,7.0,86,0.00,,,0.00,0.000000,,2013-03-05 14:21:00,
2013-03-05 04:42:00,51.0,48.0,-100.00,North,1,3.0,9.0,88,0.00,,,0.00,0.000000,,2013-03-05 14:42:00,
2013-03-05 04:52:00,51.0,48.0,-100.00,North,1,3.0,9.0,88,0.00,,,0.00,0.000000,,2013-03-05 14:52:00,
2013-03-05 05:01:00,51.0,48.0,-100.00,North,1,3.0,9.0,88,0.00,,,0.00,0.000000,,2013-03-05 15:01:00,
2013-03-05 05:11:00,51.0,48.0,-100.00,North,1,3.0,9.0,88,0.00,,,0.00,0.000000,,2013-03-05 15:11:00,
2013-03-05 05:21:00,51.0,48.0,-100.00,North,1,3.0,9.0,88,0.00,,,0.00,0.000000,,2013-03-05 15:21:00,
2013-03-05 05:42:00,51.0,48.0,-100.00,North,354,3.0,8.0,89,0.00,,,0.00,0.000000,,2013-03-05 15:42:00,
2013-03-05 05:52:00,51.0,48.0,-100.00,North,354,3.0,8.0,89,0.00,,,0.00,0.000000,,2013-03-05 15:52:00,
2013-03-05 06:01:00,51.0,48.0,-100.00,North,354,3.0,8.0,89,0.00,,,0.00,0.000000,,2013-03-05 16:01:00,
2013-03-05 06:11:00,51.0,48.0,-100.00,North,354,3.0,8.0,89,0.00,,,0.00,0.000000,,2013-03-05 16:11:00,
2013-03-05 06:21:00,51.0,48.0,-100.00,North,354,3.0,8.0,89,0.00,,,0.00,0.000000,,2013-03-05 16:21:00,
2013-03-05 06:42:00,50.0,44.0,-100.00,North,356,4.0,12.0,80,0.00,,,0.00,0.000000,,2013-03-05 16:42:00,
2013-03-05 06:52:00,50.0,44.0,-100.00,North,356,4.0,12.0,80,0.00,,,0.00,0.000000,,2013-03-05 16:52:00,
2013-03-05 07:01:00,50.0,44.0,-100.00,North,356,4.0,12.0,80,0.00,,,0.00,0.000000,,2013-03-05 17:01:00,
2013-03-05 07:11:00,50.0,44.0,-100.00,North,356,4.0,12.0,80,0.00,,,0.00,0.000000,,2013-03-05 17:11:00,
2013-03-05 07:21:00,50.0,44.0,-100.00,North,356,4.0,12.0,80,0.00,,,0.00,0.000000,,2013-03-05 17:21:00,
2013-03-05 07:42:00,52.0,44.0,-100.00,North,358,5.0,11.0,73,0.00,,,0.00,4.000000,,2013-03-05 17:42:00,
2013-03-05 07:52:00,52.0,44.0,-100.00,North,358,5.0,11.0,73,0.00,,,0.00,4.000000,,2013-03-05 17:52:00,
2013-03-05 08:01:00,52.0,44.0,-100.00,North,358,5.0,11.0,73,0.00,,,0.00,4.000000,,2013-03-05 18:01:00,
2013-03-05 08:11:00,52.0,44.0,-100.00,North,358,5.0,11.0,73,0.00,,,0.00,4.000000,,2013-03-05 18:11:00,
2013-03-05 08:21:00,52.0,44.0,-100.00,North,358,5.0,11.0,73,0.00,,,0.00,4.000000,,2013-03-05 18:21:00,
2013-03-05 08:42:00,56.0,43.0,-100.00,North,0,4.0,12.0,62,0.00,,,0.00,118.000000,,2013-03-05 18:42:00,
2013-03-05 08:53:00,56.0,43.0,-100.00,North,0,4.0,12.0,62,0.00,,,0.00,118.000000,,2013-03-05 18:53:00,
2013-03-05 09:01:00,56.0,43.0,-100.00,North,0,4.0,12.0,62,0.00,,,0.00,118.000000,,2013-03-05 19:01:00,
2013-03-05 09:11:00,56.0,43.0,-100.00,North,0,4.0,12.0,62,0.00,,,0.00,118.000000,,2013-03-05 19:11:00,
2013-03-05 09:21:00,56.0,43.0,-100.00,North,0,4.0,12.0,62,0.00,,,0.00,118.000000,,2013-03-05 19:21:00,
2013-03-05 09:42:00,62.0,46.0,-100.00,NNE,29,3.0,11.0,56,0.00,,,0.00,410.000000,,2013-03-05 19:42:00,
2013-03-05 09:52:00,62.0,46.0,-100.00,NNE,29,3.0,11.0,56,0.00,,,0.00,410.000000,,2013-03-05 19:52:00,
2013-03-05 10:01:00,62.0,46.0,-100.00,NNE,29,3.0,11.0,56,0.00,,,0.00,410.000000,,2013-03-05 20:01:00,
2013-03-05 10:11:00,62.0,46.0,-100.00,NNE,29,3.0,11.0,56,0.00,,,0.00,410.000000,,2013-03-05 20:11:00,
2013-03-05 10:21:00,62.0,46.0,-100.00,NNE,29,3.0,11.0,56,0.00,,,0.00,410.000000,,2013-03-05 20:21:00,
2013-03-05 10:42:00,66.0,44.0,-100.00,East,79,3.0,16.0,45,0.00,,,0.00,647.000000,,2013-03-05 20:42:00,
2013-03-05 10:52:00,66.0,44.0,-100.00,East,79,3.0,16.0,45,0.00,,,0.00,647.000000,,2013-03-05 20:52:00,
2013-03-05 11:01:00,66.0,44.0,-100.00,East,79,3.0,16.0,45,0.00,,,0.00,647.000000,,2013-03-05 21:01:00,
2013-03-05 11:11:00,66.0,44.0,-100.00,East,79,3.0,16.0,45,0.00,,,0.00,647.000000,,2013-03-05 21:11:00,
2013-03-05 11:21:00,66.0,44.0,-100.00,East,79,3.0,16.0,45,0.00,,,0.00,647.000000,,2013-03-05 21:21:00,
2013-03-05 11:42:00,67.0,47.0,-100.00,SE,132,4.0,11.0,49,0.00,,,0.00,829.000000,,2013-03-05 21:42:00,
2013-03-05 11:52:00,67.0,47.0,-100.00,SE,132,4.0,11.0,49,0.00,,,0.00,829.000000,,2013-03-05 21:52:00,
2013-03-05 12:01:00,67.0,47.0,-100.00,SE,132,4.0,11.0,49,0.00,,,0.00,829.000000,,2013-03-05 22:01:00,
2013-03-05 12:11:00,67.0,47.0,-100.00,SE,132,4.0,11.0,49,0.00,,,0.00,829.000000,,2013-03-05 22:11:00,
2013-03-05 12:21:00,67.0,47.0,-100.00,SE,132,4.0,11.0,49,0.00,,,0.00,829.000000,,2013-03-05 22:21:00,
2013-03-05 12:42:00,68.0,50.0,-100.00,SE,141,4.0,14.0,53,0.00,,,0.00,950.000000,,2013-03-05 22:42:00,
2013-03-05 12:52:00,68.0,50.0,-100.00,SE,141,4.0,14.0,53,0.00,,,0.00,950.000000,,2013-03-05 22:52:00,
2013-03-05 13:01:00,68.0,50.0,-100.00,SE,141,4.0,14.0,53,0.00,,,0.00,950.000000,,2013-03-05 23:01:00,
2013-03-05 13:11:00,68.0,50.0,-100.00,SE,141,4.0,14.0,53,0.00,,,0.00,950.000000,,2013-03-05 23:11:00,
2013-03-05 13:21:00,68.0,50.0,-100.00,SE,141,4.0,14.0,53,0.00,,,0.00,950.000000,,2013-03-05 23:21:00,
2013-03-05 13:42:00,68.0,53.0,-100.00,SE,136,4.0,13.0,59,0.00,,,0.00,986.000000,,2013-03-05 23:42:00,
2013-03-05 13:52:00,68.0,53.0,-100.00,SE,136,4.0,13.0,59,0.00,,,0.00,986.000000,,2013-03-05 23:52:00,
2013-03-05 14:01:00,68.0,53.0,-100.00,SE,136,4.0,13.0,59,0.00,,,0.00,986.000000,,2013-03-06 00:01:00,
2013-03-05 14:11:00,68.0,53.0,-100.00,SE,136,4.0,13.0,59,0.00,,,0.00,986.000000,,2013-03-06 00:11:00,
2013-03-05 14:21:00,68.0,53.0,-100.00,SE,136,4.0,13.0,59,0.00,,,0.00,986.000000,,2013-03-06 00:21:00,
2013-03-05 14:42:00,66.0,54.0,-100.00,ESE,108,4.0,16.0,66,0.00,,,0.00,764.000000,,2013-03-06 00:42:00,
2013-03-05 14:52:00,66.0,54.0,-100.00,ESE,108,4.0,16.0,66,0.00,,,0.00,764.000000,,2013-03-06 00:52:00,
2013-03-05 15:01:00,66.0,54.0,-100.00,ESE,108,4.0,16.0,66,0.00,,,0.00,764.000000,,2013-03-06 01:01:00,
2013-03-05 15:11:00,66.0,54.0,-100.00,ESE,108,4.0,16.0,66,0.00,,,0.00,764.000000,,2013-03-06 01:11:00,
2013-03-05 15:21:00,66.0,54.0,-100.00,ESE,108,4.0,16.0,66,0.00,,,0.00,764.000000,,2013-03-06 01:21:00,
2013-03-05 15:42:00,65.0,53.0,-100.00,ESE,104,4.0,16.0,65,0.00,,,0.00,608.000000,,2013-03-06 01:42:00,
2013-03-05 15:52:00,65.0,53.0,-100.00,ESE,104,4.0,16.0,65,0.00,,,0.00,608.000000,,2013-03-06 01:52:00,
2013-03-05 16:01:00,65.0,53.0,-100.00,ESE,104,4.0,16.0,65,0.00,,,0.00,608.000000,,2013-03-06 02:01:00,
2013-03-05 16:11:00,65.0,53.0,-100.00,ESE,104,4.0,16.0,65,0.00,,,0.00,608.000000,,2013-03-06 02:11:00,
2013-03-05 16:21:00,65.0,53.0,-100.00,ESE,104,4.0,16.0,65,0.00,,,0.00,608.000000,,2013-03-06 02:21:00,
2013-03-05 16:42:00,65.0,56.0,-100.00,ENE,78,4.0,12.0,73,0.00,,,0.00,628.000000,,2013-03-06 02:42:00,
2013-03-05 16:52:00,65.0,56.0,-100.00,ENE,78,4.0,12.0,73,0.00,,,0.00,628.000000,,2013-03-06 02:52:00,
2013-03-05 17:01:00,65.0,56.0,-100.00,ENE,78,4.0,12.0,73,0.00,,,0.00,628.000000,,2013-03-06 03:01:00,
2013-03-05 17:11:00,65.0,56.0,-100.00,ENE,78,4.0,12.0,73,0.00,,,0.00,628.000000,,2013-03-06 03:11:00,
2013-03-05 17:21:00,65.0,56.0,-100.00,ENE,78,4.0,12.0,73,0.00,,,0.00,628.000000,,2013-03-06 03:21:00,
2013-03-05 17:42:00,61.0,57.0,-100.00,NE,34,3.0,13.0,86,0.00,,,0.00,183.000000,,2013-03-06 03:42:00,
2013-03-05 17:52:00,61.0,57.0,-100.00,NE,34,3.0,13.0,86,0.00,,,0.00,183.000000,,2013-03-06 03:52:00,
2013-03-05 18:01:00,61.0,57.0,-100.00,NE,34,3.0,13.0,86,0.00,,,0.00,183.000000,,2013-03-06 04:01:00,
2013-03-05 18:11:00,61.0,57.0,-100.00,NE,34,3.0,13.0,86,0.00,,,0.00,183.000000,,2013-03-06 04:11:00,
2013-03-05 18:21:00,61.0,57.0,-100.00,NE,34,3.0,13.0,86,0.00,,,0.00,183.000000,,2013-03-06 04:21:00,
2013-03-05 18:42:00,59.0,59.0,-100.00,NE,48,2.0,9.0,100,0.00,,,0.00,85.000000,,2013-03-06 04:42:00,
2013-03-05 18:52:00,59.0,59.0,-100.00,NE,48,2.0,9.0,100,0.00,,,0.00,85.000000,,2013-03-06 04:52:00,
2013-03-05 19:01:00,59.0,59.0,-100.00,NE,48,2.0,9.0,100,0.00,,,0.00,85.000000,,2013-03-06 05:01:00,
2013-03-05 19:11:00,59.0,59.0,-100.00,NE,48,2.0,9.0,100,0.00,,,0.00,85.000000,,2013-03-06 05:11:00,
2013-03-05 19:22:00,59.0,59.0,-100.00,NE,48,2.0,9.0,100,0.00,,,0.00,85.000000,,2013-03-06 05:22:00,
2013-03-05 19:42:00,57.0,-99.9,-100.00,NNE,15,2.0,7.0,-999,0.03,,,0.03,8.000000,,2013-03-06 05:42:00,
2013-03-05 19:52:00,57.0,-99.9,-100.00,NNE,15,2.0,7.0,-999,0.03,,,0.03,8.000000,,2013-03-06 05:52:00,
2013-03-05 20:02:00,57.0,-99.9,-100.00,NNE,15,2.0,7.0,-999,0.03,,,0.03,8.000000,,2013-03-06 06:02:00,
2013-03-05 20:12:00,57.0,-99.9,-100.00,NNE,15,2.0,7.0,-999,0.03,,,0.03,8.000000,,2013-03-06 06:12:00,
2013-03-05 20:22:00,57.0,-99.9,-100.00,NNE,15,2.0,7.0,-999,0.03,,,0.03,8.000000,,2013-03-06 06:22:00,
2013-03-05 20:42:00,57.0,-99.9,-100.00,ENE,76,2.0,10.0,-999,0.12,,,0.15,0.000000,,2013-03-06 06:42:00,
2013-03-05 20:52:00,57.0,-99.9,-100.00,ENE,76,2.0,10.0,-999,0.12,,,0.15,0.000000,,2013-03-06 06:52:00,
2013-03-05 21:02:00,57.0,-99.9,-100.00,ENE,76,2.0,10.0,-999,0.12,,,0.15,0.000000,,2013-03-06 07:02:00,
2013-03-05 21:11:00,57.0,-99.9,-100.00,ENE,76,2.0,10.0,-999,0.12,,,0.15,0.000000,,2013-03-06 07:11:00,
2013-03-05 21:22:00,57.0,-99.9,-100.00,ENE,76,2.0,10.0,-999,0.12,,,0.15,0.000000,,2013-03-06 07:22:00,
2013-03-05 21:42:00,57.0,-99.9,-100.00,ESE,104,2.0,8.0,-999,0.05,,,0.20,0.000000,,2013-03-06 07:42:00,
2013-03-05 21:52:00,57.0,-99.9,-100.00,ESE,104,2.0,8.0,-999,0.05,,,0.20,0.000000,,2013-03-06 07:52:00,
2013-03-05 22:01:00,57.0,-99.9,-100.00,ESE,104,2.0,8.0,-999,0.05,,,0.20,0.000000,,2013-03-06 08:01:00,
2013-03-05 22:11:00,57.0,-99.9,-100.00,ESE,104,2.0,8.0,-999,0.05,,,0.20,0.000000,,2013-03-06 08:11:00,
2013-03-05 22:22:00,57.0,-99.9,-100.00,ESE,104,2.0,8.0,-999,0.05,,,0.20,0.000000,,2013-03-06 08:22:00,
2013-03-05 22:42:00,56.0,-99.9,-100.00,North,8,3.0,8.0,-999,0.00,,,0.20,0.000000,,2013-03-06 08:42:00,
2013-03-05 22:52:00,56.0,-99.9,-100.00,North,8,3.0,8.0,-999,0.00,,,0.20,0.000000,,2013-03-06 08:52:00,
2013-03-05 23:02:00,56.0,-99.9,-100.00,North,8,3.0,8.0,-999,0.00,,,0.20,0.000000,,2013-03-06 09:02:00,
2013-03-05 23:12:00,56.0,-99.9,-100.00,North,8,3.0,8.0,-999,0.00,,,0.20,0.000000,,2013-03-06 09:12:00,
2013-03-05 23:22:00,56.0,-99.9,-100.00,North,8,3.0,8.0,-999,0.00,,,0.20,0.000000,,2013-03-06 09:22:00,
2013-03-05 23:42:00,56.0,-99.9,-100.00,North,8,2.0,6.0,-999,0.00,,,0.20,0.000000,,2013-03-06 09:42:00,
2013-03-05 23:52:00,56.0,-99.9,-100.00,North,8,2.0,6.0,-999,0.00,,,0.20,0.000000,,2013-03-06 09:52:00,